Location: Tyumen
(57.1527°N, 65.5323°E)
Time: 04:11:19
(UTC+05:00)

ISS - Pass Details

Date: 13 July 2025
Orbit: 413 x 417 km, 51.6° (Epoch: 13 July)

Event Time Altitude Azimuth Distance (km) Brightness Sun altitude
Rises 01:54:01 0° 269° (W) 2,358 -0.1 -9.6°
Reaches altitude 10° 01:57:13 10° 236° (SW) 1,492 -1.4 -9.5°
Enters shadow 01:57:46 11° 226° (SW) 1,422 -1.6 -9.5°
